Hovedside
METAR-TAF:

METAR-TAF

Lufthavner :

Honningsvåg lufthavn. Valan

Honningsvåg, Norge

breddegrad: 71-01N, lengdegrad: 025-59E, høyde over havet: 1 m

Gjeldene værobservasjon

Denne rapporten ble laget for 6 timer og 15 minutter siden, klokken 21:50 UTC
Vind 17 kt fra Sør
Temperatur -1°C
Luftfuktighet 74%
Trykk 1007 hPa
Sikt 10 km eller mer
Spredte skyer i en høyde av 4900 ft

METAR: ENHV 192150Z 18017KT 9999 SCT049 M01/M05 Q1007

Tid: 05:05 (04:05 UTC)


TAF: fraværende

Værobservasjoner og værvarsel for over 4000 flyplasser (METAR- og TAF-rapporter).

Tilgjengelige stasjoner er representert av de røde og gule prikkene på kartet.

Hold musepekeren over prikken for å se navnet på stasjonen.

Klikk så for å se værobservasjoner og -varsler.

For å forandre kartet kan du klikke på den grønne knappen med svart kryss for å zoome inn, på den grønne knappen med strek for å zoome ut, eller på de grønne pilene for å se tilstøtende kart.


METAR-TAF: